owner,sensor,date,latitude,longitude,air_temperature,qcFlag 
DISL,ioos:station:DISL:CATA:1,2015-01-01T00:00:00Z,30.3085,-88.1395,10.4,11111222 
DISL,ioos:station:DISL:CATA:1,2015-01-01T00:30:00Z,30.3085,-88.1395,10.6,11111222 
DISL,ioos:station:DISL:CATA:1,2015-01-01T01:00:00Z,30.3085,-88.1395,10.0,11111222 
DISL,ioos:station:DISL:CATA:1,2015-01-01T01:30:00Z,30.3085,-88.1395,9.2,11111222 
DISL,ioos:station:DISL:CATA:1,2015-01-01T02:00:00Z,30.3085,-88.1395,9.1,11111222 
DISL,ioos:station:DISL:CATA:1,2015-01-01T02:30:00Z,30.3085,-88.1395,9.5,11111222 
DISL,ioos:station:DISL:CATA:1,2015-01-01T03:00:00Z,30.3085,-88.1395,9.5,11111222 
DISL,ioos:station:DISL:CATA:1,2015-01-01T03:30:00Z,30.3085,-88.1395,9.2,11111222 
DISL,ioos:station:DISL:CATA:1,2015-01-01T04:00:00Z,30.3085,-88.1395,8.5,11111222 
DISL,ioos:station:DISL:CATA:1,2015-01-01T04:30:00Z,30.3085,-88.1395,8.3,11111222 
DISL,ioos:station:DISL:CATA:1,2015-01-01T05:00:00Z,30.3085,-88.1395,8.4,11111222 
DISL,ioos:station:DISL:CATA:1,2015-01-01T05:30:00Z,30.3085,-88.1395,8.8,11111222 
DISL,ioos:station:DISL:CATA:1,2015-01-01T06:30:00Z,30.3085,-88.1395,7.547,1111122 
DISL,ioos:station:DISL:CATA:1,2015-01-01T07:00:00Z,30.3085,-88.1395,6.998,1111122 
DISL,ioos:station:DISL:CATA:1,2015-01-01T07:30:00Z,30.3085,-88.1395,7.204,1111122 
DISL,ioos:station:DISL:CATA:1,2015-01-01T08:00:00Z,30.3085,-88.1395,6.998,1111122 
DISL,ioos:station:DISL:CATA:1,2015-01-01T08:30:00Z,30.3085,-88.1395,7.479,1111122 
DISL,ioos:station:DISL:CATA:1,2015-01-01T09:00:00Z,30.3085,-88.1395,7.136,1111122 
DISL,ioos:station:DISL:CATA:1,2015-01-01T09:30:00Z,30.3085,-88.1395,6.861,1111122 
DISL,ioos:station:DISL:CATA:1,2015-01-01T10:00:00Z,30.3085,-88.1395,7.616,1111122 
DISL,ioos:station:DISL:CATA:1,2015-01-01T10:30:00Z,30.3085,-88.1395,6.69,1111122 
DISL,ioos:station:DISL:CATA:1,2015-01-01T11:00:00Z,30.3085,-88.1395,7.822,1111122 
DISL,ioos:station:DISL:CATA:1,2015-01-01T11:30:00Z,30.3085,-88.1395,7.513,1111122 
DISL,ioos:station:DISL:CATA:1,2015-01-01T12:00:00Z,30.3085,-88.1395,6.724,1111122 
DISL,ioos:station:DISL:CATA:1,2015-01-01T12:30:00Z,30.3085,-88.1395,7.993,1111122 
DISL,ioos:station:DISL:CATA:1,2015-01-01T13:00:00Z,30.3085,-88.1395,7.856,1111122 
DISL,ioos:station:DISL:CATA:1,2015-01-01T13:30:00Z,30.3085,-88.1395,8.3,1111122 
DISL,ioos:station:DISL:CATA:1,2015-01-01T14:00:00Z,30.3085,-88.1395,8.37,1111122 
DISL,ioos:station:DISL:CATA:1,2015-01-01T14:30:00Z,30.3085,-88.1395,8.71,1111122 
DISL,ioos:station:DISL:CATA:1,2015-01-01T15:00:00Z,30.3085,-88.1395,8.78,1111122 
DISL,ioos:station:DISL:CATA:1,2015-01-01T15:30:00Z,30.3085,-88.1395,9.33,1111122 
DISL,ioos:station:DISL:CATA:1,2015-01-01T16:00:00Z,30.3085,-88.1395,9.9,1111122 
DISL,ioos:station:DISL:CATA:1,2015-01-01T16:30:00Z,30.3085,-88.1395,9.76,1111122 
DISL,ioos:station:DISL:CATA:1,2015-01-01T17:00:00Z,30.3085,-88.1395,10.75,1111122 
DISL,ioos:station:DISL:CATA:1,2015-01-01T17:30:00Z,30.3085,-88.1395,10.65,1111122 
DISL,ioos:station:DISL:CATA:1,2015-01-01T18:00:00Z,30.3085,-88.1395,10.99,1111122 
DISL,ioos:station:DISL:CATA:1,2015-01-01T18:30:00Z,30.3085,-88.1395,9.9,1111122 
DISL,ioos:station:DISL:CATA:1,2015-01-01T19:00:00Z,30.3085,-88.1395,10.1,1111122 
DISL,ioos:station:DISL:CATA:1,2015-01-01T19:30:00Z,30.3085,-88.1395,10.65,1111122 
DISL,ioos:station:DISL:CATA:1,2015-01-01T20:00:00Z,30.3085,-88.1395,10.89,1111122 
DISL,ioos:station:DISL:CATA:1,2015-01-01T20:30:00Z,30.3085,-88.1395,10.89,1111122 
DISL,ioos:station:DISL:CATA:1,2015-01-01T21:00:00Z,30.3085,-88.1395,11.34,1111122 
DISL,ioos:station:DISL:CATA:1,2015-01-01T21:30:00Z,30.3085,-88.1395,11.82,1111122 
DISL,ioos:station:DISL:CATA:1,2015-01-01T22:00:00Z,30.3085,-88.1395,12.23,1111122 
DISL,ioos:station:DISL:CATA:1,2015-01-01T22:30:00Z,30.3085,-88.1395,12.33,1111122 
DISL,ioos:station:DISL:CATA:1,2015-01-01T23:00:00Z,30.3085,-88.1395,11.99,1111122 
DISL,ioos:station:DISL:CATA:1,2015-01-01T23:30:00Z,30.3085,-88.1395,12.02,1111122 
DISL,ioos:station:DISL:CATA:1,2015-01-02T00:00:00Z,30.3085,-88.1395,12.5,1111122 
DISL,ioos:station:DISL:CATA:1,2015-01-02T00:30:00Z,30.3085,-88.1395,12.19,1111122 
DISL,ioos:station:DISL:CATA:1,2015-01-02T01:00:00Z,30.3085,-88.1395,12.16,1111122 
DISL,ioos:station:DISL:CATA:1,2015-01-02T01:30:00Z,30.3085,-88.1395,12.06,1111122 
DISL,ioos:station:DISL:CATA:1,2015-01-02T02:00:00Z,30.3085,-88.1395,11.54,1111122 
DISL,ioos:station:DISL:CATA:1,2015-01-02T02:30:00Z,30.3085,-88.1395,11.54,1111122 
DISL,ioos:station:DISL:CATA:1,2015-01-02T03:00:00Z,30.3085,-88.1395,11.2,1111122 
DISL,ioos:station:DISL:CATA:1,2015-01-02T03:30:00Z,30.3085,-88.1395,10.99,1111122 
DISL,ioos:station:DISL:CATA:1,2015-01-02T04:00:00Z,30.3085,-88.1395,11.27,1111122 
DISL,ioos:station:DISL:CATA:1,2015-01-02T04:30:00Z,30.3085,-88.1395,11.47,1111122 
DISL,ioos:station:DISL:CATA:1,2015-01-02T05:00:00Z,30.3085,-88.1395,11.3,1111122 
DISL,ioos:station:DISL:CATA:1,2015-01-02T05:30:00Z,30.3085,-88.1395,11.68,1111122 
DISL,ioos:station:DISL:CATA:1,2015-01-02T06:30:00Z,30.3085,-88.1395,11.85,1111122 
DISL,ioos:station:DISL:CATA:1,2015-01-02T07:00:00Z,30.3085,-88.1395,12.3,1111122 
DISL,ioos:station:DISL:CATA:1,2015-01-02T07:30:00Z,30.3085,-88.1395,12.4,1111122 
DISL,ioos:station:DISL:CATA:1,2015-01-02T08:00:00Z,30.3085,-88.1395,12.57,1111122 
DISL,ioos:station:DISL:CATA:1,2015-01-02T08:30:00Z,30.3085,-88.1395,12.19,1111122 
DISL,ioos:station:DISL:CATA:1,2015-01-02T09:00:00Z,30.3085,-88.1395,12.37,1111122 
DISL,ioos:station:DISL:CATA:1,2015-01-02T09:30:00Z,30.3085,-88.1395,11.92,1111122 
DISL,ioos:station:DISL:CATA:1,2015-01-02T10:00:00Z,30.3085,-88.1395,12.16,1111122 
DISL,ioos:station:DISL:CATA:1,2015-01-02T10:30:00Z,30.3085,-88.1395,12.74,1111122 
DISL,ioos:station:DISL:CATA:1,2015-01-02T11:00:00Z,30.3085,-88.1395,12.26,1111122 
DISL,ioos:station:DISL:CATA:1,2015-01-02T11:30:00Z,30.3085,-88.1395,12.88,1111122 
DISL,ioos:station:DISL:CATA:1,2015-01-02T12:00:00Z,30.3085,-88.1395,12.74,1111122 
DISL,ioos:station:DISL:CATA:1,2015-01-02T12:30:00Z,30.3085,-88.1395,12.67,1111122 
DISL,ioos:station:DISL:CATA:1,2015-01-02T13:00:00Z,30.3085,-88.1395,12.57,1111122 
DISL,ioos:station:DISL:CATA:1,2015-01-02T13:30:00Z,30.3085,-88.1395,13.43,1111122 
DISL,ioos:station:DISL:CATA:1,2015-01-02T14:00:00Z,30.3085,-88.1395,12.47,1111122 
DISL,ioos:station:DISL:CATA:1,2015-01-02T14:30:00Z,30.3085,-88.1395,13.29,1111122 
DISL,ioos:station:DISL:CATA:1,2015-01-02T15:00:00Z,30.3085,-88.1395,13.84,1111122 
DISL,ioos:station:DISL:CATA:1,2015-01-02T15:30:00Z,30.3085,-88.1395,14.15,1111122 
DISL,ioos:station:DISL:CATA:1,2015-01-02T16:00:00Z,30.3085,-88.1395,15.71,1111122 
DISL,ioos:station:DISL:CATA:1,2015-01-02T16:30:00Z,30.3085,-88.1395,15.91,1111122 
DISL,ioos:station:DISL:CATA:1,2015-01-02T17:00:00Z,30.3085,-88.1395,15.78,1111122 
DISL,ioos:station:DISL:CATA:1,2015-01-02T17:30:00Z,30.3085,-88.1395,16.39,1111122 
DISL,ioos:station:DISL:CATA:1,2015-01-02T18:00:00Z,30.3085,-88.1395,15.91,1111122 
DISL,ioos:station:DISL:CATA:1,2015-01-02T18:30:00Z,30.3085,-88.1395,16.8,1111122 
DISL,ioos:station:DISL:CATA:1,2015-01-02T19:00:00Z,30.3085,-88.1395,16.97,1111122 
DISL,ioos:station:DISL:CATA:1,2015-01-02T19:30:00Z,30.3085,-88.1395,17.14,1111122 
DISL,ioos:station:DISL:CATA:1,2015-01-02T20:00:00Z,30.3085,-88.1395,15.7,1111122 
DISL,ioos:station:DISL:CATA:1,2015-01-02T20:30:00Z,30.3085,-88.1395,16.59,1111122 
DISL,ioos:station:DISL:CATA:1,2015-01-02T21:00:00Z,30.3085,-88.1395,16.05,1111122 
DISL,ioos:station:DISL:CATA:1,2015-01-02T21:30:00Z,30.3085,-88.1395,16.01,1111122 
DISL,ioos:station:DISL:CATA:1,2015-01-02T22:00:00Z,30.3085,-88.1395,16.22,1111122 
DISL,ioos:station:DISL:CATA:1,2015-01-02T22:30:00Z,30.3085,-88.1395,15.74,1111122 
DISL,ioos:station:DISL:CATA:1,2015-01-02T23:00:00Z,30.3085,-88.1395,14.85,1111122 
DISL,ioos:station:DISL:CATA:1,2015-01-02T23:30:00Z,30.3085,-88.1395,15.95,1111122 
DISL,ioos:station:DISL:CATA:1,2015-01-03T00:00:00Z,30.3085,-88.1395,16.32,1111122 
DISL,ioos:station:DISL:CATA:1,2015-01-03T00:30:00Z,30.3085,-88.1395,16.09,1111122 
DISL,ioos:station:DISL:CATA:1,2015-01-03T01:00:00Z,30.3085,-88.1395,16.19,1111122 
DISL,ioos:station:DISL:CATA:1,2015-01-03T01:30:00Z,30.3085,-88.1395,16.46,1111122 
DISL,ioos:station:DISL:CATA:1,2015-01-03T02:00:00Z,30.3085,-88.1395,16.46,1111122 
DISL,ioos:station:DISL:CATA:1,2015-01-03T02:30:00Z,30.3085,-88.1395,15.64,1111122 
DISL,ioos:station:DISL:CATA:1,2015-01-03T03:00:00Z,30.3085,-88.1395,15.57,1111122 
DISL,ioos:station:DISL:CATA:1,2015-01-03T03:30:00Z,30.3085,-88.1395,16.15,1111122 
DISL,ioos:station:DISL:CATA:1,2015-01-03T04:00:00Z,30.3085,-88.1395,15.16,1111122 
DISL,ioos:station:DISL:CATA:1,2015-01-03T04:30:00Z,30.3085,-88.1395,16.46,1111122 
DISL,ioos:station:DISL:CATA:1,2015-01-03T05:00:00Z,30.3085,-88.1395,16.63,1111122 
DISL,ioos:station:DISL:CATA:1,2015-01-03T05:30:00Z,30.3085,-88.1395,15.85,1111122 
DISL,ioos:station:DISL:CATA:1,2015-01-03T06:30:00Z,30.3085,-88.1395,15.67,1111122 
DISL,ioos:station:DISL:CATA:1,2015-01-03T07:00:00Z,30.3085,-88.1395,16.09,1111122 
DISL,ioos:station:DISL:CATA:1,2015-01-03T07:30:00Z,30.3085,-88.1395,17.39,1111122 
DISL,ioos:station:DISL:CATA:1,2015-01-03T08:00:00Z,30.3085,-88.1395,16.8,1111122 
DISL,ioos:station:DISL:CATA:1,2015-01-03T08:30:00Z,30.3085,-88.1395,16.87,1111122 
DISL,ioos:station:DISL:CATA:1,2015-01-03T09:00:00Z,30.3085,-88.1395,16.29,1111122 
DISL,ioos:station:DISL:CATA:1,2015-01-03T09:30:00Z,30.3085,-88.1395,15.74,1111122 
DISL,ioos:station:DISL:CATA:1,2015-01-03T10:00:00Z,30.3085,-88.1395,16.39,1111122 
DISL,ioos:station:DISL:CATA:1,2015-01-03T10:30:00Z,30.3085,-88.1395,16.8,1111122 
DISL,ioos:station:DISL:CATA:1,2015-01-03T11:00:00Z,30.3085,-88.1395,16.84,1111122 
DISL,ioos:station:DISL:CATA:1,2015-01-03T11:30:00Z,30.3085,-88.1395,15.95,1111122 
DISL,ioos:station:DISL:CATA:1,2015-01-03T12:00:00Z,30.3085,-88.1395,16.5,1111122 
DISL,ioos:station:DISL:CATA:1,2015-01-03T12:30:00Z,30.3085,-88.1395,17.52,1111122 
DISL,ioos:station:DISL:CATA:1,2015-01-03T13:00:00Z,30.3085,-88.1395,17.39,1111122 
DISL,ioos:station:DISL:CATA:1,2015-01-03T13:30:00Z,30.3085,-88.1395,17.15,1111122 
DISL,ioos:station:DISL:CATA:1,2015-01-03T14:00:00Z,30.3085,-88.1395,17.42,1111122 
DISL,ioos:station:DISL:CATA:1,2015-01-03T14:30:00Z,30.3085,-88.1395,15.85,1111122 
DISL,ioos:station:DISL:CATA:1,2015-01-03T15:00:00Z,30.3085,-88.1395,19.14,1111122 
DISL,ioos:station:DISL:CATA:1,2015-01-03T15:30:00Z,30.3085,-88.1395,19.65,1111122 
DISL,ioos:station:DISL:CATA:1,2015-01-03T16:00:00Z,30.3085,-88.1395,19.87,1111122 
DISL,ioos:station:DISL:CATA:1,2015-01-03T16:30:00Z,30.3085,-88.1395,19.94,1111122 
DISL,ioos:station:DISL:CATA:1,2015-01-03T17:00:00Z,30.3085,-88.1395,19.94,1111122 
DISL,ioos:station:DISL:CATA:1,2015-01-03T17:30:00Z,30.3085,-88.1395,20.25,1111122 
DISL,ioos:station:DISL:CATA:1,2015-01-03T18:00:00Z,30.3085,-88.1395,20.42,1111122 
DISL,ioos:station:DISL:CATA:1,2015-01-03T18:30:00Z,30.3085,-88.1395,19.15,1111122 
DISL,ioos:station:DISL:CATA:1,2015-01-03T19:00:00Z,30.3085,-88.1395,19.56,1111122 
DISL,ioos:station:DISL:CATA:1,2015-01-03T19:30:00Z,30.3085,-88.1395,20.01,1111122 
DISL,ioos:station:DISL:CATA:1,2015-01-03T20:00:00Z,30.3085,-88.1395,21.0,1111122 
DISL,ioos:station:DISL:CATA:1,2015-01-03T20:30:00Z,30.3085,-88.1395,20.25,1111122 
DISL,ioos:station:DISL:CATA:1,2015-01-03T21:00:00Z,30.3085,-88.1395,20.14,1111122 
DISL,ioos:station:DISL:CATA:1,2015-01-03T21:30:00Z,30.3085,-88.1395,20.01,1111122 
DISL,ioos:station:DISL:CATA:1,2015-01-03T22:00:00Z,30.3085,-88.1395,19.94,1111122 
DISL,ioos:station:DISL:CATA:1,2015-01-03T22:30:00Z,30.3085,-88.1395,19.9,1111122 
DISL,ioos:station:DISL:CATA:1,2015-01-03T23:00:00Z,30.3085,-88.1395,19.63,1111122 
DISL,ioos:station:DISL:CATA:1,2015-01-03T23:30:00Z,30.3085,-88.1395,19.49,1111122 
DISL,ioos:station:DISL:CATA:1,2015-01-04T00:00:00Z,30.3085,-88.1395,18.81,1111122 
DISL,ioos:station:DISL:CATA:1,2015-01-04T00:30:00Z,30.3085,-88.1395,19.16,1111122 
DISL,ioos:station:DISL:CATA:1,2015-01-04T01:00:00Z,30.3085,-88.1395,19.29,1111122 
DISL,ioos:station:DISL:CATA:1,2015-01-04T01:30:00Z,30.3085,-88.1395,19.43,1111122 
DISL,ioos:station:DISL:CATA:1,2015-01-04T02:00:00Z,30.3085,-88.1395,20.01,1111122 
DISL,ioos:station:DISL:CATA:1,2015-01-04T02:30:00Z,30.3085,-88.1395,19.63,1111122 
DISL,ioos:station:DISL:CATA:1,2015-01-04T03:00:00Z,30.3085,-88.1395,19.56,1111122 
DISL,ioos:station:DISL:CATA:1,2015-01-04T03:30:00Z,30.3085,-88.1395,19.53,1111122 
DISL,ioos:station:DISL:CATA:1,2015-01-04T04:00:00Z,30.3085,-88.1395,18.37,1111122 
DISL,ioos:station:DISL:CATA:1,2015-01-04T04:30:00Z,30.3085,-88.1395,19.06,1111122 
DISL,ioos:station:DISL:CATA:1,2015-01-04T05:00:00Z,30.3085,-88.1395,19.78,1111122 
DISL,ioos:station:DISL:CATA:1,2015-01-04T05:30:00Z,30.3085,-88.1395,19.27,1111122 
DISL,ioos:station:DISL:CATA:1,2015-01-04T06:30:00Z,30.3085,-88.1395,19.03,1111122 
DISL,ioos:station:DISL:CATA:1,2015-01-04T07:00:00Z,30.3085,-88.1395,18.96,1111122 
DISL,ioos:station:DISL:CATA:1,2015-01-04T07:30:00Z,30.3085,-88.1395,19.2,1111122 
DISL,ioos:station:DISL:CATA:1,2015-01-04T08:00:00Z,30.3085,-88.1395,18.79,1111122 
DISL,ioos:station:DISL:CATA:1,2015-01-04T08:30:00Z,30.3085,-88.1395,16.73,1111122 
DISL,ioos:station:DISL:CATA:1,2015-01-04T09:00:00Z,30.3085,-88.1395,17.39,1111122 
DISL,ioos:station:DISL:CATA:1,2015-01-04T09:30:00Z,30.3085,-88.1395,17.52,1111122 
DISL,ioos:station:DISL:CATA:1,2015-01-04T10:00:00Z,30.3085,-88.1395,16.56,1111122 
DISL,ioos:station:DISL:CATA:1,2015-01-04T10:30:00Z,30.3085,-88.1395,16.84,1111122 
DISL,ioos:station:DISL:CATA:1,2015-01-04T11:00:00Z,30.3085,-88.1395,17.35,1111122 
DISL,ioos:station:DISL:CATA:1,2015-01-04T11:30:00Z,30.3085,-88.1395,16.5,1111122 
DISL,ioos:station:DISL:CATA:1,2015-01-04T12:00:00Z,30.3085,-88.1395,14.89,1111122 
DISL,ioos:station:DISL:CATA:1,2015-01-04T12:30:00Z,30.3085,-88.1395,14.51,1111122 
DISL,ioos:station:DISL:CATA:1,2015-01-04T13:00:00Z,30.3085,-88.1395,14.61,1111122 
DISL,ioos:station:DISL:CATA:1,2015-01-04T13:30:00Z,30.3085,-88.1395,14.52,1111122 
DISL,ioos:station:DISL:CATA:1,2015-01-04T14:00:00Z,30.3085,-88.1395,14.62,1111122 
DISL,ioos:station:DISL:CATA:1,2015-01-04T14:30:00Z,30.3085,-88.1395,14.65,1111122 
DISL,ioos:station:DISL:CATA:1,2015-01-04T15:00:00Z,30.3085,-88.1395,14.45,1111122 
DISL,ioos:station:DISL:CATA:1,2015-01-04T15:30:00Z,30.3085,-88.1395,14.41,1111122 
DISL,ioos:station:DISL:CATA:1,2015-01-04T16:00:00Z,30.3085,-88.1395,15.2,1111122 
DISL,ioos:station:DISL:CATA:1,2015-01-04T16:30:00Z,30.3085,-88.1395,15.37,1111122 
DISL,ioos:station:DISL:CATA:1,2015-01-04T17:00:00Z,30.3085,-88.1395,15.67,1111122 
DISL,ioos:station:DISL:CATA:1,2015-01-04T17:30:00Z,30.3085,-88.1395,15.64,1111122 
DISL,ioos:station:DISL:CATA:1,2015-01-04T18:00:00Z,30.3085,-88.1395,14.95,1111122 
DISL,ioos:station:DISL:CATA:1,2015-01-04T18:30:00Z,30.3085,-88.1395,14.99,1111122 
DISL,ioos:station:DISL:CATA:1,2015-01-04T19:00:00Z,30.3085,-88.1395,14.99,1111122 
DISL,ioos:station:DISL:CATA:1,2015-01-04T19:30:00Z,30.3085,-88.1395,15.13,1111122 
DISL,ioos:station:DISL:CATA:1,2015-01-04T20:00:00Z,30.3085,-88.1395,15.85,1111122 
DISL,ioos:station:DISL:CATA:1,2015-01-04T20:30:00Z,30.3085,-88.1395,15.06,1111122 
DISL,ioos:station:DISL:CATA:1,2015-01-04T21:00:00Z,30.3085,-88.1395,15.33,1111122 
DISL,ioos:station:DISL:CATA:1,2015-01-04T21:30:00Z,30.3085,-88.1395,15.09,1111122 
DISL,ioos:station:DISL:CATA:1,2015-01-04T22:00:00Z,30.3085,-88.1395,15.09,1111122 
DISL,ioos:station:DISL:CATA:1,2015-01-04T22:30:00Z,30.3085,-88.1395,14.92,1111122 
DISL,ioos:station:DISL:CATA:1,2015-01-04T23:00:00Z,30.3085,-88.1395,14.68,1111122 
DISL,ioos:station:DISL:CATA:1,2015-01-04T23:30:00Z,30.3085,-88.1395,15.17,1111122 
DISL,ioos:station:DISL:CATA:1,2015-01-05T00:00:00Z,30.3085,-88.1395,13.87,1111122 
DISL,ioos:station:DISL:CATA:1,2015-01-05T00:30:00Z,30.3085,-88.1395,13.67,1111122 
DISL,ioos:station:DISL:CATA:1,2015-01-05T01:00:00Z,30.3085,-88.1395,13.7,1111122 
DISL,ioos:station:DISL:CATA:1,2015-01-05T01:30:00Z,30.3085,-88.1395,13.53,1111122 
DISL,ioos:station:DISL:CATA:1,2015-01-05T02:00:00Z,30.3085,-88.1395,12.67,1111122 
DISL,ioos:station:DISL:CATA:1,2015-01-05T02:30:00Z,30.3085,-88.1395,12.47,1111122 
DISL,ioos:station:DISL:CATA:1,2015-01-05T03:00:00Z,30.3085,-88.1395,11.85,1111122 
DISL,ioos:station:DISL:CATA:1,2015-01-05T03:30:00Z,30.3085,-88.1395,11.3,1111122 
DISL,ioos:station:DISL:CATA:1,2015-01-05T04:00:00Z,30.3085,-88.1395,11.06,1111122 
DISL,ioos:station:DISL:CATA:1,2015-01-05T04:30:00Z,30.3085,-88.1395,10.82,1111122 
DISL,ioos:station:DISL:CATA:1,2015-01-05T05:00:00Z,30.3085,-88.1395,10.03,1111122 
DISL,ioos:station:DISL:CATA:1,2015-01-05T05:30:00Z,30.3085,-88.1395,9.69,1111122 
DISL,ioos:station:DISL:CATA:1,2015-01-05T06:30:00Z,30.3085,-88.1395,8.99,1111122 
DISL,ioos:station:DISL:CATA:1,2015-01-05T07:00:00Z,30.3085,-88.1395,8.37,1111122 
DISL,ioos:station:DISL:CATA:1,2015-01-05T07:30:00Z,30.3085,-88.1395,8.06,1111122 
DISL,ioos:station:DISL:CATA:1,2015-01-05T08:00:00Z,30.3085,-88.1395,7.719,1111122 
DISL,ioos:station:DISL:CATA:1,2015-01-05T08:30:00Z,30.3085,-88.1395,7.444,1111122 
DISL,ioos:station:DISL:CATA:1,2015-01-05T09:00:00Z,30.3085,-88.1395,6.93,1111122 
DISL,ioos:station:DISL:CATA:1,2015-01-05T09:30:00Z,30.3085,-88.1395,6.658,1111122 
DISL,ioos:station:DISL:CATA:1,2015-01-05T10:00:00Z,30.3085,-88.1395,6.045,1111122 
DISL,ioos:station:DISL:CATA:1,2015-01-05T10:30:00Z,30.3085,-88.1395,5.84,1111122 
DISL,ioos:station:DISL:CATA:1,2015-01-05T11:00:00Z,30.3085,-88.1395,5.705,1111122 
DISL,ioos:station:DISL:CATA:1,2015-01-05T11:30:00Z,30.3085,-88.1395,4.883,1111122 
DISL,ioos:station:DISL:CATA:1,2015-01-05T12:00:00Z,30.3085,-88.1395,5.226,1111122 
DISL,ioos:station:DISL:CATA:1,2015-01-05T12:30:00Z,30.3085,-88.1395,5.33,1111122 
DISL,ioos:station:DISL:CATA:1,2015-01-05T13:00:00Z,30.3085,-88.1395,5.088,1111122 
DISL,ioos:station:DISL:CATA:1,2015-01-05T13:30:00Z,30.3085,-88.1395,5.123,1111122 
DISL,ioos:station:DISL:CATA:1,2015-01-05T14:00:00Z,30.3085,-88.1395,5.192,1111122 
DISL,ioos:station:DISL:CATA:1,2015-01-05T14:30:00Z,30.3085,-88.1395,4.607,1111122 
DISL,ioos:station:DISL:CATA:1,2015-01-05T15:00:00Z,30.3085,-88.1395,5.222,1111122 
DISL,ioos:station:DISL:CATA:1,2015-01-05T15:30:00Z,30.3085,-88.1395,5.497,1111122 
DISL,ioos:station:DISL:CATA:1,2015-01-05T16:00:00Z,30.3085,-88.1395,5.354,1111122 
DISL,ioos:station:DISL:CATA:1,2015-01-05T16:30:00Z,30.3085,-88.1395,5.18,1111122 
DISL,ioos:station:DISL:CATA:1,2015-01-05T17:00:00Z,30.3085,-88.1395,4.871,1111122 
DISL,ioos:station:DISL:CATA:1,2015-01-05T17:30:00Z,30.3085,-88.1395,5.317,1111122 
DISL,ioos:station:DISL:CATA:1,2015-01-05T18:00:00Z,30.3085,-88.1395,6.003,1111122 
DISL,ioos:station:DISL:CATA:1,2015-01-05T18:30:00Z,30.3085,-88.1395,6.689,1111122 
DISL,ioos:station:DISL:CATA:1,2015-01-05T19:00:00Z,30.3085,-88.1395,7.332,1111122 
DISL,ioos:station:DISL:CATA:1,2015-01-05T19:30:00Z,30.3085,-88.1395,8.35,1111122 
DISL,ioos:station:DISL:CATA:1,2015-01-05T20:00:00Z,30.3085,-88.1395,8.63,1111122 
DISL,ioos:station:DISL:CATA:1,2015-01-05T20:30:00Z,30.3085,-88.1395,9.59,1111122 
DISL,ioos:station:DISL:CATA:1,2015-01-05T21:00:00Z,30.3085,-88.1395,10.24,1111122 
DISL,ioos:station:DISL:CATA:1,2015-01-05T21:30:00Z,30.3085,-88.1395,10.45,1111122 
DISL,ioos:station:DISL:CATA:1,2015-01-05T22:00:00Z,30.3085,-88.1395,10.51,1111122 
DISL,ioos:station:DISL:CATA:1,2015-01-05T22:30:00Z,30.3085,-88.1395,10.41,1111122 
DISL,ioos:station:DISL:CATA:1,2015-01-05T23:00:00Z,30.3085,-88.1395,9.93,1111122 
DISL,ioos:station:DISL:CATA:1,2015-01-05T23:30:00Z,30.3085,-88.1395,10.21,1111122 
DISL,ioos:station:DISL:CATA:1,2015-01-06T00:00:00Z,30.3085,-88.1395,9.22,1111122 
DISL,ioos:station:DISL:CATA:1,2015-01-06T00:30:00Z,30.3085,-88.1395,8.51,1111122 
DISL,ioos:station:DISL:CATA:1,2015-01-06T01:00:00Z,30.3085,-88.1395,8.64,1111122 
DISL,ioos:station:DISL:CATA:1,2015-01-06T01:30:00Z,30.3085,-88.1395,7.753,1111122 
DISL,ioos:station:DISL:CATA:1,2015-01-06T02:00:00Z,30.3085,-88.1395,7.959,1111122 
DISL,ioos:station:DISL:CATA:1,2015-01-06T02:30:00Z,30.3085,-88.1395,7.581,1111122 
DISL,ioos:station:DISL:CATA:1,2015-01-06T03:00:00Z,30.3085,-88.1395,7.89,1111122 
DISL,ioos:station:DISL:CATA:1,2015-01-06T03:30:00Z,30.3085,-88.1395,9.71,1111122 
DISL,ioos:station:DISL:CATA:1,2015-01-06T04:00:00Z,30.3085,-88.1395,9.67,1111122 
DISL,ioos:station:DISL:CATA:1,2015-01-06T04:30:00Z,30.3085,-88.1395,10.05,1111122 
DISL,ioos:station:DISL:CATA:1,2015-01-06T05:00:00Z,30.3085,-88.1395,9.5,1111122 
DISL,ioos:station:DISL:CATA:1,2015-01-06T05:30:00Z,30.3085,-88.1395,5.729,1111122 
DISL,ioos:station:DISL:CATA:1,2015-01-06T06:30:00Z,30.3085,-88.1395,6.319,1111122 
DISL,ioos:station:DISL:CATA:1,2015-01-06T07:00:00Z,30.3085,-88.1395,6.629,1111122 
DISL,ioos:station:DISL:CATA:1,2015-01-06T07:30:00Z,30.3085,-88.1395,5.637,1111122 
DISL,ioos:station:DISL:CATA:1,2015-01-06T08:00:00Z,30.3085,-88.1395,5.435,1111122 
DISL,ioos:station:DISL:CATA:1,2015-01-06T08:30:00Z,30.3085,-88.1395,4.475,1111122 
DISL,ioos:station:DISL:CATA:1,2015-01-06T09:00:00Z,30.3085,-88.1395,5.676,1111122 
DISL,ioos:station:DISL:CATA:1,2015-01-06T09:30:00Z,30.3085,-88.1395,5.539,1111122 
DISL,ioos:station:DISL:CATA:1,2015-01-06T10:00:00Z,30.3085,-88.1395,5.607,1111122 
DISL,ioos:station:DISL:CATA:1,2015-01-06T10:30:00Z,30.3085,-88.1395,5.642,1111122 
DISL,ioos:station:DISL:CATA:1,2015-01-06T11:00:00Z,30.3085,-88.1395,5.23,1111122 
DISL,ioos:station:DISL:CATA:1,2015-01-06T11:30:00Z,30.3085,-88.1395,4.749,1111122 
DISL,ioos:station:DISL:CATA:1,2015-01-06T12:00:00Z,30.3085,-88.1395,4.784,1111122 
DISL,ioos:station:DISL:CATA:1,2015-01-06T12:30:00Z,30.3085,-88.1395,4.749,1111122 
DISL,ioos:station:DISL:CATA:1,2015-01-06T13:00:00Z,30.3085,-88.1395,4.303,1111122 
DISL,ioos:station:DISL:CATA:1,2015-01-06T13:30:00Z,30.3085,-88.1395,5.196,1111122 
DISL,ioos:station:DISL:CATA:1,2015-01-06T14:00:00Z,30.3085,-88.1395,5.23,1111122 
DISL,ioos:station:DISL:CATA:1,2015-01-06T14:30:00Z,30.3085,-88.1395,6.115,1111122 
DISL,ioos:station:DISL:CATA:1,2015-01-06T15:00:00Z,30.3085,-88.1395,6.69,1111122 
DISL,ioos:station:DISL:CATA:1,2015-01-06T15:30:00Z,30.3085,-88.1395,7.615,1111122 
DISL,ioos:station:DISL:CATA:1,2015-01-06T16:00:00Z,30.3085,-88.1395,8.18,1111122 
DISL,ioos:station:DISL:CATA:1,2015-01-06T16:30:00Z,30.3085,-88.1395,8.73,1111122 
DISL,ioos:station:DISL:CATA:1,2015-01-06T17:00:00Z,30.3085,-88.1395,9.28,1111122 
DISL,ioos:station:DISL:CATA:1,2015-01-06T17:30:00Z,30.3085,-88.1395,9.3,1111122 
DISL,ioos:station:DISL:CATA:1,2015-01-06T18:00:00Z,30.3085,-88.1395,10.09,1111122 
DISL,ioos:station:DISL:CATA:1,2015-01-06T18:30:00Z,30.3085,-88.1395,10.74,1111122 
DISL,ioos:station:DISL:CATA:1,2015-01-06T19:00:00Z,30.3085,-88.1395,11.66,1111122 
DISL,ioos:station:DISL:CATA:1,2015-01-06T19:30:00Z,30.3085,-88.1395,11.66,1111122 
DISL,ioos:station:DISL:CATA:1,2015-01-06T20:00:00Z,30.3085,-88.1395,11.77,1111122 
DISL,ioos:station:DISL:CATA:1,2015-01-06T20:30:00Z,30.3085,-88.1395,13.62,1111122 
DISL,ioos:station:DISL:CATA:1,2015-01-06T21:00:00Z,30.3085,-88.1395,13.51,1111122 
DISL,ioos:station:DISL:CATA:1,2015-01-06T21:30:00Z,30.3085,-88.1395,14.1,1111122 
DISL,ioos:station:DISL:CATA:1,2015-01-06T22:00:00Z,30.3085,-88.1395,13.96,1111122 
DISL,ioos:station:DISL:CATA:1,2015-01-06T22:30:00Z,30.3085,-88.1395,12.45,1111122 
DISL,ioos:station:DISL:CATA:1,2015-01-06T23:00:00Z,30.3085,-88.1395,12.77,1111122 
DISL,ioos:station:DISL:CATA:1,2015-01-06T23:30:00Z,30.3085,-88.1395,12.4,1111122 
DISL,ioos:station:DISL:CATA:1,2015-01-07T00:00:00Z,30.3085,-88.1395,12.47,1111122 
DISL,ioos:station:DISL:CATA:1,2015-01-07T00:30:00Z,30.3085,-88.1395,12.4,1111122 
DISL,ioos:station:DISL:CATA:1,2015-01-07T01:00:00Z,30.3085,-88.1395,12.61,1111122 
DISL,ioos:station:DISL:CATA:1,2015-01-07T01:30:00Z,30.3085,-88.1395,12.19,1111122 
DISL,ioos:station:DISL:CATA:1,2015-01-07T02:00:00Z,30.3085,-88.1395,12.47,1111122 
DISL,ioos:station:DISL:CATA:1,2015-01-07T02:30:00Z,30.3085,-88.1395,11.65,1111122 
DISL,ioos:station:DISL:CATA:1,2015-01-07T03:00:00Z,30.3085,-88.1395,11.65,1111122 